Location: Arthez
(43.0833°N, 0.2500°W)
Time: 12:47:14
(UTC+00:00)

Cosmos 304 Rocket - Visible Passes

Search period start: 29 May 2022 00:00
Search period end: 08 June 2022 00:00
Orbit: 678 x 687 km, 74.0° (Epoch: 28 May)

Date Brightness Start Highest point End Pass type
(mag) Time Alt. Az. Time Alt. Az. Time Alt. Az.
29 May 5.1 01:29:31 26° W 01:30:48 29° WNW 01:35:01 10° N visible
30 May 3.6 00:27:54 82° WSW 00:28:04 85° WNW 00:32:55 10° NNE visible
30 May 6.2 02:07:19 10° WNW 02:09:04 12° NW 02:10:50 10° NNW visible
30 May 5.0 23:26:16 30° E 23:26:16 30° E 23:29:57 10° NE visible
31 May 5.1 01:04:43 27° W 01:05:54 30° WNW 01:10:10 10° N visible
01 Jun 3.6 00:03:03 85° SW 00:03:10 88° WNW 00:08:01 10° NNE visible
01 Jun 6.2 01:42:12 10° WNW 01:44:08 12° NW 01:46:05 10° NNW visible
01 Jun 4.9 23:01:20 29° E 23:01:20 29° E 23:05:01 10° NE visible
02 Jun 5.1 00:39:47 28° W 00:40:59 31° WNW 00:45:18 10° N visible
02 Jun 3.6 23:38:03 82° S 23:38:16 89° ESE 23:43:07 10° NNE visible
03 Jun 6.2 01:17:07 10° WNW 01:19:13 13° NW 01:21:20 10° NNW visible
03 Jun 4.9 22:36:16 28° E 22:36:16 28° E 22:40:05 10° NE visible
04 Jun 5.1 00:14:42 27° W 00:16:04 32° WNW 00:20:25 10° N visible
04 Jun 3.6 23:12:53 72° S 23:13:22 85° ESE 23:18:13 10° NNE visible
05 Jun 6.3 00:52:02 10° W 00:54:17 13° NW 00:56:33 10° NNW visible
05 Jun 4.9 22:11:01 27° E 22:11:04 27° E 22:15:08 10° NE visible
05 Jun 5.1 23:49:27 26° W 23:51:09 34° WNW 23:55:33 10° N visible
06 Jun 3.6 22:47:32 58° S 22:48:29 82° ESE 22:53:19 10° NNE visible
07 Jun 6.3 00:26:57 10° W 00:29:21 14° NW 00:31:46 10° NNW visible
07 Jun 4.8 21:45:34 26° ESE 21:46:11 26° E 21:50:11 10° NE visible
07 Jun 5.1 23:23:59 23° WSW 23:26:14 35° WNW 23:30:40 10° N visible
